Starlink 11618

operational
NORAD ID: 63185 Int'l Des: 2025-048 Owner: SPXS Country: US Constellation: starlink
LEOCIRCULAR

About Starlink 11618

Description loading...

Live Position

Loading 3D Globe...

Upcoming Passes

Altitude History

Altitude vs Time

uPlot chart will show altitude changes over time

Two-Line Element Set

1 63185U 25048C 26095.52260796 .00166535 00000-0 12735-2 0 9997
2 63185 42.9991 157.9468 0001787 286.9813 73.0859 15.70876394 62739
Epoch: Apr 5, 2026 • Age: 5 hours

Current Status

Altitude 359.6 km
Velocity 7.70 km/s
Sub-Earth Point 39.99°N, 124.9°E
Launch Date Mar 13, 2025
Age 1 years
Type internet

Technical Details

Classification Payload
Mass 960.00 kg
Dry Mass 910.00 kg
Total Mass 960.00 kg
Length 0.30 m
Diameter 4.10 m
Span 29.00 m
Shape Box + pan
Manufacturer SPXS
Bus Type Starlink V2MD
Phase Status In Orbit
Owner/State SPXS/US

Large Constellations

Loading constellations...